Index of /20260501/WXO-DD/model_rdps/10km/06/032
Name Last modified Size Description
Parent Directory -
20260501T06Z_MSC_RDPS_AbsoluteVorticity_IsbL-0250_RLatLon0.09_PT032H.grib2 2026-05-01 08:49 595K
20260501T06Z_MSC_RDPS_AbsoluteVorticity_IsbL-0500_RLatLon0.09_PT032H.grib2 2026-05-01 08:49 561K
20260501T06Z_MSC_RDPS_AbsoluteVorticity_IsbL-0700_RLatLon0.09_PT032H.grib2 2026-05-01 08:49 618K
20260501T06Z_MSC_RDPS_AbsoluteVorticity_IsbL-0850_RLatLon0.09_PT032H.grib2 2026-05-01 08:49 782K
20260501T06Z_MSC_RDPS_AirTemp_AGL-120m_RLatLon0.09_PT032H.grib2 2026-05-01 08:49 382K
20260501T06Z_MSC_RDPS_AirTemp_AGL-2m_RLatLon0.09_PT032H.grib2 2026-05-01 08:49 627K
20260501T06Z_MSC_RDPS_AirTemp_AGL-40m_RLatLon0.09_PT032H.grib2 2026-05-01 08:49 397K
20260501T06Z_MSC_RDPS_AirTemp_AGL-80m_RLatLon0.09_PT032H.grib2 2026-05-01 08:49 390K
20260501T06Z_MSC_RDPS_AirTemp_IsbL-0001_RLatLon0.09_PT032H.grib2 2026-05-01 08:49 312K
20260501T06Z_MSC_RDPS_AirTemp_IsbL-0005_RLatLon0.09_PT032H.grib2 2026-05-01 08:49 286K
20260501T06Z_MSC_RDPS_AirTemp_IsbL-0010_RLatLon0.09_PT032H.grib2 2026-05-01 08:49 297K
20260501T06Z_MSC_RDPS_AirTemp_IsbL-0020_RLatLon0.09_PT032H.grib2 2026-05-01 08:49 310K
20260501T06Z_MSC_RDPS_AirTemp_IsbL-0030_RLatLon0.09_PT032H.grib2 2026-05-01 08:49 332K
20260501T06Z_MSC_RDPS_AirTemp_IsbL-0050_RLatLon0.09_PT032H.grib2 2026-05-01 08:49 311K
20260501T06Z_MSC_RDPS_AirTemp_IsbL-0100_RLatLon0.09_PT032H.grib2 2026-05-01 08:49 421K
20260501T06Z_MSC_RDPS_AirTemp_IsbL-0150_RLatLon0.09_PT032H.grib2 2026-05-01 08:49 414K
20260501T06Z_MSC_RDPS_AirTemp_IsbL-0175_RLatLon0.09_PT032H.grib2 2026-05-01 08:49 405K
20260501T06Z_MSC_RDPS_AirTemp_IsbL-0200_RLatLon0.09_PT032H.grib2 2026-05-01 08:49 408K
20260501T06Z_MSC_RDPS_AirTemp_IsbL-0225_RLatLon0.09_PT032H.grib2 2026-05-01 08:49 407K
20260501T06Z_MSC_RDPS_AirTemp_IsbL-0250_RLatLon0.09_PT032H.grib2 2026-05-01 08:49 414K
20260501T06Z_MSC_RDPS_AirTemp_IsbL-0275_RLatLon0.09_PT032H.grib2 2026-05-01 08:49 396K
20260501T06Z_MSC_RDPS_AirTemp_IsbL-0300_RLatLon0.09_PT032H.grib2 2026-05-01 08:49 404K
20260501T06Z_MSC_RDPS_AirTemp_IsbL-0350_RLatLon0.09_PT032H.grib2 2026-05-01 08:49 421K
20260501T06Z_MSC_RDPS_AirTemp_IsbL-0400_RLatLon0.09_PT032H.grib2 2026-05-01 08:49 422K
20260501T06Z_MSC_RDPS_AirTemp_IsbL-0450_RLatLon0.09_PT032H.grib2 2026-05-01 08:49 394K
20260501T06Z_MSC_RDPS_AirTemp_IsbL-0500_RLatLon0.09_PT032H.grib2 2026-05-01 08:49 404K
20260501T06Z_MSC_RDPS_AirTemp_IsbL-0550_RLatLon0.09_PT032H.grib2 2026-05-01 08:49 421K
20260501T06Z_MSC_RDPS_AirTemp_IsbL-0600_RLatLon0.09_PT032H.grib2 2026-05-01 08:49 440K
20260501T06Z_MSC_RDPS_AirTemp_IsbL-0650_RLatLon0.09_PT032H.grib2 2026-05-01 08:49 454K
20260501T06Z_MSC_RDPS_AirTemp_IsbL-0700_RLatLon0.09_PT032H.grib2 2026-05-01 08:49 478K
20260501T06Z_MSC_RDPS_AirTemp_IsbL-0750_RLatLon0.09_PT032H.grib2 2026-05-01 08:49 518K
20260501T06Z_MSC_RDPS_AirTemp_IsbL-0800_RLatLon0.09_PT032H.grib2 2026-05-01 08:49 571K
20260501T06Z_MSC_RDPS_AirTemp_IsbL-0850_RLatLon0.09_PT032H.grib2 2026-05-01 08:49 629K
20260501T06Z_MSC_RDPS_AirTemp_IsbL-0875_RLatLon0.09_PT032H.grib2 2026-05-01 08:49 652K
20260501T06Z_MSC_RDPS_AirTemp_IsbL-0900_RLatLon0.09_PT032H.grib2 2026-05-01 08:49 663K
20260501T06Z_MSC_RDPS_AirTemp_IsbL-0925_RLatLon0.09_PT032H.grib2 2026-05-01 08:49 661K
20260501T06Z_MSC_RDPS_AirTemp_IsbL-0950_RLatLon0.09_PT032H.grib2 2026-05-01 08:49 531K
20260501T06Z_MSC_RDPS_AirTemp_IsbL-0970_RLatLon0.09_PT032H.grib2 2026-05-01 08:49 527K
20260501T06Z_MSC_RDPS_AirTemp_IsbL-0985_RLatLon0.09_PT032H.grib2 2026-05-01 08:49 516K
20260501T06Z_MSC_RDPS_AirTemp_IsbL-1000_RLatLon0.09_PT032H.grib2 2026-05-01 08:49 501K
20260501T06Z_MSC_RDPS_AirTemp_IsbL-1015_RLatLon0.09_PT032H.grib2 2026-05-01 08:49 498K
20260501T06Z_MSC_RDPS_Albedo_Sfc_RLatLon0.09_PT032H.grib2 2026-05-01 08:49 158K
20260501T06Z_MSC_RDPS_CAPE_Sfc_RLatLon0.09_PT032H.grib2 2026-05-01 08:49 1.7M
20260501T06Z_MSC_RDPS_CIN_Sfc_RLatLon0.09_PT032H.grib2 2026-05-01 08:49 1.1M
20260501T06Z_MSC_RDPS_CloudWater_EAtm_RLatLon0.09_PT032H.grib2 2026-05-01 08:49 220K
20260501T06Z_MSC_RDPS_ConvectivePrecip-Accum_Sfc_RLatLon0.09_PT032H.grib2 2026-05-01 08:49 868K
20260501T06Z_MSC_RDPS_DewPointDepression_AGL-2m_RLatLon0.09_PT032H.grib2 2026-05-01 08:49 411K
20260501T06Z_MSC_RDPS_DewPointDepression_IsbL-0001_RLatLon0.09_PT032H.grib2 2026-05-01 08:49 193
20260501T06Z_MSC_RDPS_DewPointDepression_IsbL-0005_RLatLon0.09_PT032H.grib2 2026-05-01 08:49 193
20260501T06Z_MSC_RDPS_DewPointDepression_IsbL-0010_RLatLon0.09_PT032H.grib2 2026-05-01 08:49 193
20260501T06Z_MSC_RDPS_DewPointDepression_IsbL-0020_RLatLon0.09_PT032H.grib2 2026-05-01 08:49 193
20260501T06Z_MSC_RDPS_DewPointDepression_IsbL-0030_RLatLon0.09_PT032H.grib2 2026-05-01 08:49 193
20260501T06Z_MSC_RDPS_DewPointDepression_IsbL-0050_RLatLon0.09_PT032H.grib2 2026-05-01 08:49 79K
20260501T06Z_MSC_RDPS_DewPointDepression_IsbL-0100_RLatLon0.09_PT032H.grib2 2026-05-01 08:49 122K
20260501T06Z_MSC_RDPS_DewPointDepression_IsbL-0150_RLatLon0.09_PT032H.grib2 2026-05-01 08:49 149K
20260501T06Z_MSC_RDPS_DewPointDepression_IsbL-0175_RLatLon0.09_PT032H.grib2 2026-05-01 08:49 184K
20260501T06Z_MSC_RDPS_DewPointDepression_IsbL-0200_RLatLon0.09_PT032H.grib2 2026-05-01 08:49 217K
20260501T06Z_MSC_RDPS_DewPointDepression_IsbL-0225_RLatLon0.09_PT032H.grib2 2026-05-01 08:49 252K
20260501T06Z_MSC_RDPS_DewPointDepression_IsbL-0250_RLatLon0.09_PT032H.grib2 2026-05-01 08:49 293K
20260501T06Z_MSC_RDPS_DewPointDepression_IsbL-0275_RLatLon0.09_PT032H.grib2 2026-05-01 08:49 303K
20260501T06Z_MSC_RDPS_DewPointDepression_IsbL-0300_RLatLon0.09_PT032H.grib2 2026-05-01 08:49 321K
20260501T06Z_MSC_RDPS_DewPointDepression_IsbL-0350_RLatLon0.09_PT032H.grib2 2026-05-01 08:49 326K
20260501T06Z_MSC_RDPS_DewPointDepression_IsbL-0400_RLatLon0.09_PT032H.grib2 2026-05-01 08:49 336K
20260501T06Z_MSC_RDPS_DewPointDepression_IsbL-0450_RLatLon0.09_PT032H.grib2 2026-05-01 08:49 343K
20260501T06Z_MSC_RDPS_DewPointDepression_IsbL-0500_RLatLon0.09_PT032H.grib2 2026-05-01 08:49 351K
20260501T06Z_MSC_RDPS_DewPointDepression_IsbL-0550_RLatLon0.09_PT032H.grib2 2026-05-01 08:49 360K
20260501T06Z_MSC_RDPS_DewPointDepression_IsbL-0600_RLatLon0.09_PT032H.grib2 2026-05-01 08:49 371K
20260501T06Z_MSC_RDPS_DewPointDepression_IsbL-0650_RLatLon0.09_PT032H.grib2 2026-05-01 08:49 377K
20260501T06Z_MSC_RDPS_DewPointDepression_IsbL-0700_RLatLon0.09_PT032H.grib2 2026-05-01 08:49 386K
20260501T06Z_MSC_RDPS_DewPointDepression_IsbL-0750_RLatLon0.09_PT032H.grib2 2026-05-01 08:49 402K
20260501T06Z_MSC_RDPS_DewPointDepression_IsbL-0800_RLatLon0.09_PT032H.grib2 2026-05-01 08:49 437K
20260501T06Z_MSC_RDPS_DewPointDepression_IsbL-0850_RLatLon0.09_PT032H.grib2 2026-05-01 08:49 471K
20260501T06Z_MSC_RDPS_DewPointDepression_IsbL-0875_RLatLon0.09_PT032H.grib2 2026-05-01 08:49 472K
20260501T06Z_MSC_RDPS_DewPointDepression_IsbL-0900_RLatLon0.09_PT032H.grib2 2026-05-01 08:49 460K
20260501T06Z_MSC_RDPS_DewPointDepression_IsbL-0925_RLatLon0.09_PT032H.grib2 2026-05-01 08:49 447K
20260501T06Z_MSC_RDPS_DewPointDepression_IsbL-0950_RLatLon0.09_PT032H.grib2 2026-05-01 08:49 445K
20260501T06Z_MSC_RDPS_DewPointDepression_IsbL-0970_RLatLon0.09_PT032H.grib2 2026-05-01 08:49 440K
20260501T06Z_MSC_RDPS_DewPointDepression_IsbL-0985_RLatLon0.09_PT032H.grib2 2026-05-01 08:49 437K
20260501T06Z_MSC_RDPS_DewPointDepression_IsbL-1000_RLatLon0.09_PT032H.grib2 2026-05-01 08:49 432K
20260501T06Z_MSC_RDPS_DewPointDepression_IsbL-1015_RLatLon0.09_PT032H.grib2 2026-05-01 08:49 425K
20260501T06Z_MSC_RDPS_DewPoint_AGL-2m_RLatLon0.09_PT032H.grib2 2026-05-01 08:49 399K
20260501T06Z_MSC_RDPS_DownwardLongwaveRadiationFlux-Accum_Sfc_RLatLon0.09_PT032H.grib2 2026-05-01 08:49 484K
20260501T06Z_MSC_RDPS_DownwardShortwaveRadiationFlux-Accum_NTAtm_RLatLon0.09_PT032H.grib2 2026-05-01 08:49 112K
20260501T06Z_MSC_RDPS_DownwardShortwaveRadiationFlux-Accum_Sfc_RLatLon0.09_PT032H.grib2 2026-05-01 08:49 519K
20260501T06Z_MSC_RDPS_FreezingRain-Accum1h_Sfc_RLatLon0.09_PT032H.grib2 2026-05-01 08:49 36K
20260501T06Z_MSC_RDPS_FreezingRain-Accum_Sfc_RLatLon0.09_PT032H.grib2 2026-05-01 08:49 145K
20260501T06Z_MSC_RDPS_GeopotentialHeight_IsbL-0001_RLatLon0.09_PT032H.grib2 2026-05-01 08:49 345K
20260501T06Z_MSC_RDPS_GeopotentialHeight_IsbL-0005_RLatLon0.09_PT032H.grib2 2026-05-01 08:49 304K
20260501T06Z_MSC_RDPS_GeopotentialHeight_IsbL-0010_RLatLon0.09_PT032H.grib2 2026-05-01 08:49 304K
20260501T06Z_MSC_RDPS_GeopotentialHeight_IsbL-0020_RLatLon0.09_PT032H.grib2 2026-05-01 08:49 303K
20260501T06Z_MSC_RDPS_GeopotentialHeight_IsbL-0030_RLatLon0.09_PT032H.grib2 2026-05-01 08:49 306K
20260501T06Z_MSC_RDPS_GeopotentialHeight_IsbL-0050_RLatLon0.09_PT032H.grib2 2026-05-01 08:49 307K
20260501T06Z_MSC_RDPS_GeopotentialHeight_IsbL-0100_RLatLon0.09_PT032H.grib2 2026-05-01 08:49 284K
20260501T06Z_MSC_RDPS_GeopotentialHeight_IsbL-0150_RLatLon0.09_PT032H.grib2 2026-05-01 08:49 227K
20260501T06Z_MSC_RDPS_GeopotentialHeight_IsbL-0175_RLatLon0.09_PT032H.grib2 2026-05-01 08:49 261K
20260501T06Z_MSC_RDPS_GeopotentialHeight_IsbL-0200_RLatLon0.09_PT032H.grib2 2026-05-01 08:49 264K
20260501T06Z_MSC_RDPS_GeopotentialHeight_IsbL-0225_RLatLon0.09_PT032H.grib2 2026-05-01 08:49 265K
20260501T06Z_MSC_RDPS_GeopotentialHeight_IsbL-0250_RLatLon0.09_PT032H.grib2 2026-05-01 08:49 266K
20260501T06Z_MSC_RDPS_GeopotentialHeight_IsbL-0275_RLatLon0.09_PT032H.grib2 2026-05-01 08:49 264K
20260501T06Z_MSC_RDPS_GeopotentialHeight_IsbL-0300_RLatLon0.09_PT032H.grib2 2026-05-01 08:49 264K
20260501T06Z_MSC_RDPS_GeopotentialHeight_IsbL-0350_RLatLon0.09_PT032H.grib2 2026-05-01 08:49 230K
20260501T06Z_MSC_RDPS_GeopotentialHeight_IsbL-0400_RLatLon0.09_PT032H.grib2 2026-05-01 08:49 227K
20260501T06Z_MSC_RDPS_GeopotentialHeight_IsbL-0450_RLatLon0.09_PT032H.grib2 2026-05-01 08:49 296K
20260501T06Z_MSC_RDPS_GeopotentialHeight_IsbL-0500_RLatLon0.09_PT032H.grib2 2026-05-01 08:49 292K
20260501T06Z_MSC_RDPS_GeopotentialHeight_IsbL-0550_RLatLon0.09_PT032H.grib2 2026-05-01 08:49 288K
20260501T06Z_MSC_RDPS_GeopotentialHeight_IsbL-0600_RLatLon0.09_PT032H.grib2 2026-05-01 08:49 283K
20260501T06Z_MSC_RDPS_GeopotentialHeight_IsbL-0650_RLatLon0.09_PT032H.grib2 2026-05-01 08:49 254K
20260501T06Z_MSC_RDPS_GeopotentialHeight_IsbL-0700_RLatLon0.09_PT032H.grib2 2026-05-01 08:49 252K
20260501T06Z_MSC_RDPS_GeopotentialHeight_IsbL-0750_RLatLon0.09_PT032H.grib2 2026-05-01 08:49 338K
20260501T06Z_MSC_RDPS_GeopotentialHeight_IsbL-0800_RLatLon0.09_PT032H.grib2 2026-05-01 08:49 347K
20260501T06Z_MSC_RDPS_GeopotentialHeight_IsbL-0850_RLatLon0.09_PT032H.grib2 2026-05-01 08:49 358K
20260501T06Z_MSC_RDPS_GeopotentialHeight_IsbL-0875_RLatLon0.09_PT032H.grib2 2026-05-01 08:49 361K
20260501T06Z_MSC_RDPS_GeopotentialHeight_IsbL-0900_RLatLon0.09_PT032H.grib2 2026-05-01 08:49 364K
20260501T06Z_MSC_RDPS_GeopotentialHeight_IsbL-0925_RLatLon0.09_PT032H.grib2 2026-05-01 08:49 368K
20260501T06Z_MSC_RDPS_GeopotentialHeight_IsbL-0950_RLatLon0.09_PT032H.grib2 2026-05-01 08:49 371K
20260501T06Z_MSC_RDPS_GeopotentialHeight_IsbL-0970_RLatLon0.09_PT032H.grib2 2026-05-01 08:49 377K
20260501T06Z_MSC_RDPS_GeopotentialHeight_IsbL-0985_RLatLon0.09_PT032H.grib2 2026-05-01 08:49 386K
20260501T06Z_MSC_RDPS_GeopotentialHeight_IsbL-1000_RLatLon0.09_PT032H.grib2 2026-05-01 08:49 399K
20260501T06Z_MSC_RDPS_GeopotentialHeight_IsbL-1015_RLatLon0.09_PT032H.grib2 2026-05-01 08:49 415K
20260501T06Z_MSC_RDPS_Humidex_Sfc_RLatLon0.09_PT032H.grib2 2026-05-01 08:49 2.4M
20260501T06Z_MSC_RDPS_IcePellets-Accum1h_Sfc_RLatLon0.09_PT032H.grib2 2026-05-01 08:49 11K
20260501T06Z_MSC_RDPS_IcePellets-Accum_Sfc_RLatLon0.09_PT032H.grib2 2026-05-01 08:49 23K
20260501T06Z_MSC_RDPS_KIndex_Sfc_RLatLon0.09_PT032H.grib2 2026-05-01 08:49 2.4M
20260501T06Z_MSC_RDPS_LatentHeatNetFlux_Sfc_RLatLon0.09_PT032H.grib2 2026-05-01 08:49 279K
20260501T06Z_MSC_RDPS_LiftedIndex-MU-VT_IsbL-0500_RLatLon0.09_PT032H.grib2 2026-05-01 08:49 2.4M
20260501T06Z_MSC_RDPS_NetLongwaveRadiationFlux-Accum_Sfc_RLatLon0.09_PT032H.grib2 2026-05-01 08:49 626K
20260501T06Z_MSC_RDPS_NetShortwaveRadiationFlux-Accum_Sfc_RLatLon0.09_PT032H.grib2 2026-05-01 08:49 522K
20260501T06Z_MSC_RDPS_PlanetaryBoundaryLayerHeight_Sfc_RLatLon0.09_PT032H.grib2 2026-05-01 08:49 1.1M
20260501T06Z_MSC_RDPS_Precip-Accum1h_Sfc_RLatLon0.09_PT032H.grib2 2026-05-01 08:49 1.2M
20260501T06Z_MSC_RDPS_Precip-Accum_Sfc_RLatLon0.09_PT032H.grib2 2026-05-01 08:49 1.9M
20260501T06Z_MSC_RDPS_PrecipRate_Sfc_RLatLon0.09_PT032H.grib2 2026-05-01 08:49 177K
20260501T06Z_MSC_RDPS_PrecipType-Instant_Sfc_RLatLon0.09_PT032H.grib2 2026-05-01 08:49 580K
20260501T06Z_MSC_RDPS_Pressure-Trend3h_Sfc_RLatLon0.09_PT032H.grib2 2026-05-01 08:49 1.2M
20260501T06Z_MSC_RDPS_Pressure_MSL_RLatLon0.09_PT032H.grib2 2026-05-01 08:49 327K
20260501T06Z_MSC_RDPS_Pressure_PVU-1.5_RLatLon0.09_PT032H.grib2 2026-05-01 08:49 2.3M
20260501T06Z_MSC_RDPS_Pressure_PVU-1_RLatLon0.09_PT032H.grib2 2026-05-01 08:49 2.4M
20260501T06Z_MSC_RDPS_Pressure_PVU-2_RLatLon0.09_PT032H.grib2 2026-05-01 08:49 2.4M
20260501T06Z_MSC_RDPS_Pressure_Sfc_RLatLon0.09_PT032H.grib2 2026-05-01 08:49 500K
20260501T06Z_MSC_RDPS_RadiativeTemp_Sfc_RLatLon0.09_PT032H.grib2 2026-05-01 08:49 312K
20260501T06Z_MSC_RDPS_Rain-Accum1h_Sfc_RLatLon0.09_PT032H.grib2 2026-05-01 08:49 539K
20260501T06Z_MSC_RDPS_Rain-Accum_Sfc_RLatLon0.09_PT032H.grib2 2026-05-01 08:49 1.5M
20260501T06Z_MSC_RDPS_RelativeHumidity_AGL-2m_RLatLon0.09_PT032H.grib2 2026-05-01 08:49 1.0M
20260501T06Z_MSC_RDPS_RelativeHumidity_IsbL-0010_RLatLon0.09_PT032H.grib2 2026-05-01 08:49 636K
20260501T06Z_MSC_RDPS_RelativeHumidity_IsbL-0020_RLatLon0.09_PT032H.grib2 2026-05-01 08:49 675K
20260501T06Z_MSC_RDPS_RelativeHumidity_IsbL-0030_RLatLon0.09_PT032H.grib2 2026-05-01 08:49 604K
20260501T06Z_MSC_RDPS_RelativeHumidity_IsbL-0050_RLatLon0.09_PT032H.grib2 2026-05-01 08:49 361K
20260501T06Z_MSC_RDPS_RelativeHumidity_IsbL-0100_RLatLon0.09_PT032H.grib2 2026-05-01 08:49 272K
20260501T06Z_MSC_RDPS_RelativeHumidity_IsbL-0150_RLatLon0.09_PT032H.grib2 2026-05-01 08:49 402K
20260501T06Z_MSC_RDPS_RelativeHumidity_IsbL-0175_RLatLon0.09_PT032H.grib2 2026-05-01 08:49 471K
20260501T06Z_MSC_RDPS_RelativeHumidity_IsbL-0200_RLatLon0.09_PT032H.grib2 2026-05-01 08:49 546K
20260501T06Z_MSC_RDPS_RelativeHumidity_IsbL-0225_RLatLon0.09_PT032H.grib2 2026-05-01 08:49 609K
20260501T06Z_MSC_RDPS_RelativeHumidity_IsbL-0250_RLatLon0.09_PT032H.grib2 2026-05-01 08:49 677K
20260501T06Z_MSC_RDPS_RelativeHumidity_IsbL-0275_RLatLon0.09_PT032H.grib2 2026-05-01 08:49 701K
20260501T06Z_MSC_RDPS_RelativeHumidity_IsbL-0300_RLatLon0.09_PT032H.grib2 2026-05-01 08:49 741K
20260501T06Z_MSC_RDPS_RelativeHumidity_IsbL-0350_RLatLon0.09_PT032H.grib2 2026-05-01 08:49 766K
20260501T06Z_MSC_RDPS_RelativeHumidity_IsbL-0400_RLatLon0.09_PT032H.grib2 2026-05-01 08:49 782K
20260501T06Z_MSC_RDPS_RelativeHumidity_IsbL-0450_RLatLon0.09_PT032H.grib2 2026-05-01 08:49 791K
20260501T06Z_MSC_RDPS_RelativeHumidity_IsbL-0500_RLatLon0.09_PT032H.grib2 2026-05-01 08:49 800K
20260501T06Z_MSC_RDPS_RelativeHumidity_IsbL-0550_RLatLon0.09_PT032H.grib2 2026-05-01 08:49 827K
20260501T06Z_MSC_RDPS_RelativeHumidity_IsbL-0600_RLatLon0.09_PT032H.grib2 2026-05-01 08:49 848K
20260501T06Z_MSC_RDPS_RelativeHumidity_IsbL-0650_RLatLon0.09_PT032H.grib2 2026-05-01 08:49 857K
20260501T06Z_MSC_RDPS_RelativeHumidity_IsbL-0700_RLatLon0.09_PT032H.grib2 2026-05-01 08:49 877K
20260501T06Z_MSC_RDPS_RelativeHumidity_IsbL-0750_RLatLon0.09_PT032H.grib2 2026-05-01 08:49 916K
20260501T06Z_MSC_RDPS_RelativeHumidity_IsbL-0800_RLatLon0.09_PT032H.grib2 2026-05-01 08:49 1.0M
20260501T06Z_MSC_RDPS_RelativeHumidity_IsbL-0850_RLatLon0.09_PT032H.grib2 2026-05-01 08:49 1.0M
20260501T06Z_MSC_RDPS_RelativeHumidity_IsbL-0875_RLatLon0.09_PT032H.grib2 2026-05-01 08:49 1.1M
20260501T06Z_MSC_RDPS_RelativeHumidity_IsbL-0900_RLatLon0.09_PT032H.grib2 2026-05-01 08:49 1.1M
20260501T06Z_MSC_RDPS_RelativeHumidity_IsbL-0925_RLatLon0.09_PT032H.grib2 2026-05-01 08:49 1.1M
20260501T06Z_MSC_RDPS_RelativeHumidity_IsbL-0950_RLatLon0.09_PT032H.grib2 2026-05-01 08:49 1.1M
20260501T06Z_MSC_RDPS_RelativeHumidity_IsbL-0970_RLatLon0.09_PT032H.grib2 2026-05-01 08:49 1.1M
20260501T06Z_MSC_RDPS_RelativeHumidity_IsbL-0985_RLatLon0.09_PT032H.grib2 2026-05-01 08:49 1.0M
20260501T06Z_MSC_RDPS_RelativeHumidity_IsbL-1000_RLatLon0.09_PT032H.grib2 2026-05-01 08:49 1.0M
20260501T06Z_MSC_RDPS_RelativeHumidity_IsbL-1015_RLatLon0.09_PT032H.grib2 2026-05-01 08:49 1.0M
20260501T06Z_MSC_RDPS_Runoff-Accum_Sfc_RLatLon0.09_PT032H.grib2 2026-05-01 08:49 61K
20260501T06Z_MSC_RDPS_SWEATIndex_Sfc_RLatLon0.09_PT032H.grib2 2026-05-01 08:49 2.4M
20260501T06Z_MSC_RDPS_SeeingIndex_EAtm_RLatLon0.09_PT032H.grib2 2026-05-01 08:49 1.0M
20260501T06Z_MSC_RDPS_SensibleHeatNetFlux_Sfc_RLatLon0.09_PT032H.grib2 2026-05-01 08:49 256K
20260501T06Z_MSC_RDPS_ShowalterIndex_IsbL-0500_RLatLon0.09_PT032H.grib2 2026-05-01 08:49 2.6M
20260501T06Z_MSC_RDPS_SkyTransparencyIndex_EAtm_RLatLon0.09_PT032H.grib2 2026-05-01 08:49 710K
20260501T06Z_MSC_RDPS_Snow-Accum1h_Sfc_RLatLon0.09_PT032H.grib2 2026-05-01 08:49 451K
20260501T06Z_MSC_RDPS_Snow-Accum_Sfc_RLatLon0.09_PT032H.grib2 2026-05-01 08:49 656K
20260501T06Z_MSC_RDPS_SnowDensity_Sfc_RLatLon0.09_PT032H.grib2 2026-05-01 08:49 172K
20260501T06Z_MSC_RDPS_SnowDepth_Sfc_RLatLon0.09_PT032H.grib2 2026-05-01 08:49 665K
20260501T06Z_MSC_RDPS_SoilTemp_DBS-0to10cm_RLatLon0.09_PT032H.grib2 2026-05-01 08:49 228K
20260501T06Z_MSC_RDPS_SoilTemp_Sfc_RLatLon0.09_PT032H.grib2 2026-05-01 08:49 282K
20260501T06Z_MSC_RDPS_SoilVolumetricIceContent_Sfc_RLatLon0.09_PT032H.grib2 2026-05-01 08:49 161K
20260501T06Z_MSC_RDPS_SoilVolumetricWaterContent_DBS-0to10cm_RLatLon0.09_PT032H.grib2 2026-05-01 08:49 271K
20260501T06Z_MSC_RDPS_SoilVolumetricWaterContent_DBS-0to1cm_RLatLon0.09_PT032H.grib2 2026-05-01 08:49 340K
20260501T06Z_MSC_RDPS_SpecificHumidity_AGL-120m_RLatLon0.09_PT032H.grib2 2026-05-01 08:49 496K
20260501T06Z_MSC_RDPS_SpecificHumidity_AGL-2m_RLatLon0.09_PT032H.grib2 2026-05-01 08:49 663K
20260501T06Z_MSC_RDPS_SpecificHumidity_AGL-40m_RLatLon0.09_PT032H.grib2 2026-05-01 08:49 501K
20260501T06Z_MSC_RDPS_SpecificHumidity_AGL-80m_RLatLon0.09_PT032H.grib2 2026-05-01 08:49 498K
20260501T06Z_MSC_RDPS_SpecificHumidity_IsbL-0001_RLatLon0.09_PT032H.grib2 2026-05-01 08:49 403K
20260501T06Z_MSC_RDPS_SpecificHumidity_IsbL-0005_RLatLon0.09_PT032H.grib2 2026-05-01 08:49 364K
20260501T06Z_MSC_RDPS_SpecificHumidity_IsbL-0010_RLatLon0.09_PT032H.grib2 2026-05-01 08:49 397K
20260501T06Z_MSC_RDPS_SpecificHumidity_IsbL-0020_RLatLon0.09_PT032H.grib2 2026-05-01 08:49 381K
20260501T06Z_MSC_RDPS_SpecificHumidity_IsbL-0030_RLatLon0.09_PT032H.grib2 2026-05-01 08:49 371K
20260501T06Z_MSC_RDPS_SpecificHumidity_IsbL-0050_RLatLon0.09_PT032H.grib2 2026-05-01 08:49 485K
20260501T06Z_MSC_RDPS_SpecificHumidity_IsbL-0100_RLatLon0.09_PT032H.grib2 2026-05-01 08:49 529K
20260501T06Z_MSC_RDPS_SpecificHumidity_IsbL-0150_RLatLon0.09_PT032H.grib2 2026-05-01 08:49 469K
20260501T06Z_MSC_RDPS_SpecificHumidity_IsbL-0175_RLatLon0.09_PT032H.grib2 2026-05-01 08:49 530K
20260501T06Z_MSC_RDPS_SpecificHumidity_IsbL-0200_RLatLon0.09_PT032H.grib2 2026-05-01 08:49 442K
20260501T06Z_MSC_RDPS_SpecificHumidity_IsbL-0225_RLatLon0.09_PT032H.grib2 2026-05-01 08:49 444K
20260501T06Z_MSC_RDPS_SpecificHumidity_IsbL-0250_RLatLon0.09_PT032H.grib2 2026-05-01 08:49 507K
20260501T06Z_MSC_RDPS_SpecificHumidity_IsbL-0275_RLatLon0.09_PT032H.grib2 2026-05-01 08:49 466K
20260501T06Z_MSC_RDPS_SpecificHumidity_IsbL-0300_RLatLon0.09_PT032H.grib2 2026-05-01 08:49 439K
20260501T06Z_MSC_RDPS_SpecificHumidity_IsbL-0350_RLatLon0.09_PT032H.grib2 2026-05-01 08:49 433K
20260501T06Z_MSC_RDPS_SpecificHumidity_IsbL-0400_RLatLon0.09_PT032H.grib2 2026-05-01 08:49 512K
20260501T06Z_MSC_RDPS_SpecificHumidity_IsbL-0450_RLatLon0.09_PT032H.grib2 2026-05-01 08:49 566K
20260501T06Z_MSC_RDPS_SpecificHumidity_IsbL-0500_RLatLon0.09_PT032H.grib2 2026-05-01 08:49 503K
20260501T06Z_MSC_RDPS_SpecificHumidity_IsbL-0550_RLatLon0.09_PT032H.grib2 2026-05-01 08:49 576K
20260501T06Z_MSC_RDPS_SpecificHumidity_IsbL-0600_RLatLon0.09_PT032H.grib2 2026-05-01 08:49 630K
20260501T06Z_MSC_RDPS_SpecificHumidity_IsbL-0650_RLatLon0.09_PT032H.grib2 2026-05-01 08:49 546K
20260501T06Z_MSC_RDPS_SpecificHumidity_IsbL-0700_RLatLon0.09_PT032H.grib2 2026-05-01 08:49 587K
20260501T06Z_MSC_RDPS_SpecificHumidity_IsbL-0750_RLatLon0.09_PT032H.grib2 2026-05-01 08:49 640K
20260501T06Z_MSC_RDPS_SpecificHumidity_IsbL-0800_RLatLon0.09_PT032H.grib2 2026-05-01 08:49 716K
20260501T06Z_MSC_RDPS_SpecificHumidity_IsbL-0850_RLatLon0.09_PT032H.grib2 2026-05-01 08:49 801K
20260501T06Z_MSC_RDPS_SpecificHumidity_IsbL-0875_RLatLon0.09_PT032H.grib2 2026-05-01 08:49 827K
20260501T06Z_MSC_RDPS_SpecificHumidity_IsbL-0900_RLatLon0.09_PT032H.grib2 2026-05-01 08:49 838K
20260501T06Z_MSC_RDPS_SpecificHumidity_IsbL-0925_RLatLon0.09_PT032H.grib2 2026-05-01 08:49 839K
20260501T06Z_MSC_RDPS_SpecificHumidity_IsbL-0950_RLatLon0.09_PT032H.grib2 2026-05-01 08:49 845K
20260501T06Z_MSC_RDPS_SpecificHumidity_IsbL-0970_RLatLon0.09_PT032H.grib2 2026-05-01 08:49 839K
20260501T06Z_MSC_RDPS_SpecificHumidity_IsbL-0985_RLatLon0.09_PT032H.grib2 2026-05-01 08:49 693K
20260501T06Z_MSC_RDPS_SpecificHumidity_IsbL-1000_RLatLon0.09_PT032H.grib2 2026-05-01 08:49 687K
20260501T06Z_MSC_RDPS_SpecificHumidity_IsbL-1015_RLatLon0.09_PT032H.grib2 2026-05-01 08:49 676K
20260501T06Z_MSC_RDPS_SpecificHumidity_Sfc_RLatLon0.09_PT032H.grib2 2026-05-01 08:49 308K
20260501T06Z_MSC_RDPS_StormRelativeHelicity_EtaL-10000_RLatLon0.09_PT032H.grib2 2026-05-01 08:49 1.1M
20260501T06Z_MSC_RDPS_StormSeverityIndex_EtaL-10000_RLatLon0.09_PT032H.grib2 2026-05-01 08:49 1.2M
20260501T06Z_MSC_RDPS_Thickness_IsbL-0850to0700_RLatLon0.09_PT032H.grib2 2026-05-01 08:49 176K
20260501T06Z_MSC_RDPS_Thickness_IsbL-1000to0500_RLatLon0.09_PT032H.grib2 2026-05-01 08:49 196K
20260501T06Z_MSC_RDPS_Thickness_IsbL-1000to0850_RLatLon0.09_PT032H.grib2 2026-05-01 08:49 264K
20260501T06Z_MSC_RDPS_TotalCloudCover_Sfc_RLatLon0.09_PT032H.grib2 2026-05-01 08:49 651K
20260501T06Z_MSC_RDPS_TotalTotalsIndex_Sfc_RLatLon0.09_PT032H.grib2 2026-05-01 08:49 2.4M
20260501T06Z_MSC_RDPS_UVIndex-ClearSky_Sfc_RLatLon0.09_PT032H.grib2 2026-05-01 08:49 208K
20260501T06Z_MSC_RDPS_UVIndex_Sfc_RLatLon0.09_PT032H.grib2 2026-05-01 08:49 447K
20260501T06Z_MSC_RDPS_UpwardLongwaveRadiationFlux_NTAtm_RLatLon0.09_PT032H.grib2 2026-05-01 08:49 478K
20260501T06Z_MSC_RDPS_UpwardShortwaveRadiationFlux_NTAtm_RLatLon0.09_PT032H.grib2 2026-05-01 08:49 400K
20260501T06Z_MSC_RDPS_VerticalVelocity_IsbL-0250_RLatLon0.09_PT032H.grib2 2026-05-01 08:49 424K
20260501T06Z_MSC_RDPS_VerticalVelocity_IsbL-0500_RLatLon0.09_PT032H.grib2 2026-05-01 08:49 537K
20260501T06Z_MSC_RDPS_VerticalVelocity_IsbL-0700_RLatLon0.09_PT032H.grib2 2026-05-01 08:49 585K
20260501T06Z_MSC_RDPS_VerticalVelocity_IsbL-0850_RLatLon0.09_PT032H.grib2 2026-05-01 08:49 690K
20260501T06Z_MSC_RDPS_VerticalWindShear_EtaL-6500_RLatLon0.09_PT032H.grib2 2026-05-01 08:49 1.2M
20260501T06Z_MSC_RDPS_WindChill_Sfc_RLatLon0.09_PT032H.grib2 2026-05-01 08:49 1.2M
20260501T06Z_MSC_RDPS_WindDir_AGL-10m_RLatLon0.09_PT032H.grib2 2026-05-01 08:49 971K
20260501T06Z_MSC_RDPS_WindDir_AGL-120m_RLatLon0.09_PT032H.grib2 2026-05-01 08:49 612K
20260501T06Z_MSC_RDPS_WindDir_AGL-40m_RLatLon0.09_PT032H.grib2 2026-05-01 08:49 639K
20260501T06Z_MSC_RDPS_WindDir_AGL-80m_RLatLon0.09_PT032H.grib2 2026-05-01 08:49 623K
20260501T06Z_MSC_RDPS_WindDir_IsbL-0001_RLatLon0.09_PT032H.grib2 2026-05-01 08:49 303K
20260501T06Z_MSC_RDPS_WindDir_IsbL-0005_RLatLon0.09_PT032H.grib2 2026-05-01 08:49 377K
20260501T06Z_MSC_RDPS_WindDir_IsbL-0010_RLatLon0.09_PT032H.grib2 2026-05-01 08:49 386K
20260501T06Z_MSC_RDPS_WindDir_IsbL-0020_RLatLon0.09_PT032H.grib2 2026-05-01 08:49 431K
20260501T06Z_MSC_RDPS_WindDir_IsbL-0030_RLatLon0.09_PT032H.grib2 2026-05-01 08:49 420K
20260501T06Z_MSC_RDPS_WindDir_IsbL-0050_RLatLon0.09_PT032H.grib2 2026-05-01 08:49 418K
20260501T06Z_MSC_RDPS_WindDir_IsbL-0100_RLatLon0.09_PT032H.grib2 2026-05-01 08:49 420K
20260501T06Z_MSC_RDPS_WindDir_IsbL-0150_RLatLon0.09_PT032H.grib2 2026-05-01 08:49 407K
20260501T06Z_MSC_RDPS_WindDir_IsbL-0175_RLatLon0.09_PT032H.grib2 2026-05-01 08:49 423K
20260501T06Z_MSC_RDPS_WindDir_IsbL-0200_RLatLon0.09_PT032H.grib2 2026-05-01 08:49 436K
20260501T06Z_MSC_RDPS_WindDir_IsbL-0225_RLatLon0.09_PT032H.grib2 2026-05-01 08:49 442K
20260501T06Z_MSC_RDPS_WindDir_IsbL-0250_RLatLon0.09_PT032H.grib2 2026-05-01 08:49 444K
20260501T06Z_MSC_RDPS_WindDir_IsbL-0275_RLatLon0.09_PT032H.grib2 2026-05-01 08:49 469K
20260501T06Z_MSC_RDPS_WindDir_IsbL-0300_RLatLon0.09_PT032H.grib2 2026-05-01 08:49 469K
20260501T06Z_MSC_RDPS_WindDir_IsbL-0350_RLatLon0.09_PT032H.grib2 2026-05-01 08:49 494K
20260501T06Z_MSC_RDPS_WindDir_IsbL-0400_RLatLon0.09_PT032H.grib2 2026-05-01 08:49 512K
20260501T06Z_MSC_RDPS_WindDir_IsbL-0450_RLatLon0.09_PT032H.grib2 2026-05-01 08:49 529K
20260501T06Z_MSC_RDPS_WindDir_IsbL-0500_RLatLon0.09_PT032H.grib2 2026-05-01 08:49 540K
20260501T06Z_MSC_RDPS_WindDir_IsbL-0550_RLatLon0.09_PT032H.grib2 2026-05-01 08:49 551K
20260501T06Z_MSC_RDPS_WindDir_IsbL-0600_RLatLon0.09_PT032H.grib2 2026-05-01 08:49 578K
20260501T06Z_MSC_RDPS_WindDir_IsbL-0650_RLatLon0.09_PT032H.grib2 2026-05-01 08:49 615K
20260501T06Z_MSC_RDPS_WindDir_IsbL-0700_RLatLon0.09_PT032H.grib2 2026-05-01 08:49 652K
20260501T06Z_MSC_RDPS_WindDir_IsbL-0750_RLatLon0.09_PT032H.grib2 2026-05-01 08:49 701K
20260501T06Z_MSC_RDPS_WindDir_IsbL-0800_RLatLon0.09_PT032H.grib2 2026-05-01 08:49 769K
20260501T06Z_MSC_RDPS_WindDir_IsbL-0850_RLatLon0.09_PT032H.grib2 2026-05-01 08:49 858K
20260501T06Z_MSC_RDPS_WindDir_IsbL-0875_RLatLon0.09_PT032H.grib2 2026-05-01 08:49 890K
20260501T06Z_MSC_RDPS_WindDir_IsbL-0900_RLatLon0.09_PT032H.grib2 2026-05-01 08:49 905K
20260501T06Z_MSC_RDPS_WindDir_IsbL-0925_RLatLon0.09_PT032H.grib2 2026-05-01 08:49 916K
20260501T06Z_MSC_RDPS_WindDir_IsbL-0950_RLatLon0.09_PT032H.grib2 2026-05-01 08:49 913K
20260501T06Z_MSC_RDPS_WindDir_IsbL-0970_RLatLon0.09_PT032H.grib2 2026-05-01 08:49 924K
20260501T06Z_MSC_RDPS_WindDir_IsbL-0985_RLatLon0.09_PT032H.grib2 2026-05-01 08:49 933K
20260501T06Z_MSC_RDPS_WindDir_IsbL-1000_RLatLon0.09_PT032H.grib2 2026-05-01 08:49 945K
20260501T06Z_MSC_RDPS_WindDir_IsbL-1015_RLatLon0.09_PT032H.grib2 2026-05-01 08:49 962K
20260501T06Z_MSC_RDPS_WindGust-Max_AGL-10m_RLatLon0.09_PT032H.grib2 2026-05-01 08:49 957K
20260501T06Z_MSC_RDPS_WindGust-Min_AGL-10m_RLatLon0.09_PT032H.grib2 2026-05-01 08:49 1.0M
20260501T06Z_MSC_RDPS_WindGust_AGL-10m_RLatLon0.09_PT032H.grib2 2026-05-01 08:49 1.0M
20260501T06Z_MSC_RDPS_WindSpeed_AGL-10m_RLatLon0.09_PT032H.grib2 2026-05-01 08:49 844K
20260501T06Z_MSC_RDPS_WindSpeed_AGL-120m_RLatLon0.09_PT032H.grib2 2026-05-01 08:49 545K
20260501T06Z_MSC_RDPS_WindSpeed_AGL-40m_RLatLon0.09_PT032H.grib2 2026-05-01 08:49 544K
20260501T06Z_MSC_RDPS_WindSpeed_AGL-80m_RLatLon0.09_PT032H.grib2 2026-05-01 08:49 544K
20260501T06Z_MSC_RDPS_WindSpeed_IsbL-0001_RLatLon0.09_PT032H.grib2 2026-05-01 08:49 253K
20260501T06Z_MSC_RDPS_WindSpeed_IsbL-0005_RLatLon0.09_PT032H.grib2 2026-05-01 08:49 379K
20260501T06Z_MSC_RDPS_WindSpeed_IsbL-0010_RLatLon0.09_PT032H.grib2 2026-05-01 08:49 397K
20260501T06Z_MSC_RDPS_WindSpeed_IsbL-0020_RLatLon0.09_PT032H.grib2 2026-05-01 08:49 318K
20260501T06Z_MSC_RDPS_WindSpeed_IsbL-0030_RLatLon0.09_PT032H.grib2 2026-05-01 08:49 316K
20260501T06Z_MSC_RDPS_WindSpeed_IsbL-0050_RLatLon0.09_PT032H.grib2 2026-05-01 08:49 345K
20260501T06Z_MSC_RDPS_WindSpeed_IsbL-0100_RLatLon0.09_PT032H.grib2 2026-05-01 08:49 473K
20260501T06Z_MSC_RDPS_WindSpeed_IsbL-0150_RLatLon0.09_PT032H.grib2 2026-05-01 08:49 378K
20260501T06Z_MSC_RDPS_WindSpeed_IsbL-0175_RLatLon0.09_PT032H.grib2 2026-05-01 08:49 401K
20260501T06Z_MSC_RDPS_WindSpeed_IsbL-0200_RLatLon0.09_PT032H.grib2 2026-05-01 08:49 437K
20260501T06Z_MSC_RDPS_WindSpeed_IsbL-0225_RLatLon0.09_PT032H.grib2 2026-05-01 08:49 442K
20260501T06Z_MSC_RDPS_WindSpeed_IsbL-0250_RLatLon0.09_PT032H.grib2 2026-05-01 08:49 445K
20260501T06Z_MSC_RDPS_WindSpeed_IsbL-0275_RLatLon0.09_PT032H.grib2 2026-05-01 08:49 464K
20260501T06Z_MSC_RDPS_WindSpeed_IsbL-0300_RLatLon0.09_PT032H.grib2 2026-05-01 08:49 462K
20260501T06Z_MSC_RDPS_WindSpeed_IsbL-0350_RLatLon0.09_PT032H.grib2 2026-05-01 08:49 473K
20260501T06Z_MSC_RDPS_WindSpeed_IsbL-0400_RLatLon0.09_PT032H.grib2 2026-05-01 08:49 477K
20260501T06Z_MSC_RDPS_WindSpeed_IsbL-0450_RLatLon0.09_PT032H.grib2 2026-05-01 08:49 461K
20260501T06Z_MSC_RDPS_WindSpeed_IsbL-0500_RLatLon0.09_PT032H.grib2 2026-05-01 08:49 462K
20260501T06Z_MSC_RDPS_WindSpeed_IsbL-0550_RLatLon0.09_PT032H.grib2 2026-05-01 08:49 581K
20260501T06Z_MSC_RDPS_WindSpeed_IsbL-0600_RLatLon0.09_PT032H.grib2 2026-05-01 08:49 589K
20260501T06Z_MSC_RDPS_WindSpeed_IsbL-0650_RLatLon0.09_PT032H.grib2 2026-05-01 08:49 649K
20260501T06Z_MSC_RDPS_WindSpeed_IsbL-0700_RLatLon0.09_PT032H.grib2 2026-05-01 08:49 673K
20260501T06Z_MSC_RDPS_WindSpeed_IsbL-0750_RLatLon0.09_PT032H.grib2 2026-05-01 08:49 705K
20260501T06Z_MSC_RDPS_WindSpeed_IsbL-0800_RLatLon0.09_PT032H.grib2 2026-05-01 08:49 755K
20260501T06Z_MSC_RDPS_WindSpeed_IsbL-0850_RLatLon0.09_PT032H.grib2 2026-05-01 08:49 771K
20260501T06Z_MSC_RDPS_WindSpeed_IsbL-0875_RLatLon0.09_PT032H.grib2 2026-05-01 08:49 793K
20260501T06Z_MSC_RDPS_WindSpeed_IsbL-0900_RLatLon0.09_PT032H.grib2 2026-05-01 08:49 805K
20260501T06Z_MSC_RDPS_WindSpeed_IsbL-0925_RLatLon0.09_PT032H.grib2 2026-05-01 08:49 864K
20260501T06Z_MSC_RDPS_WindSpeed_IsbL-0950_RLatLon0.09_PT032H.grib2 2026-05-01 08:49 866K
20260501T06Z_MSC_RDPS_WindSpeed_IsbL-0970_RLatLon0.09_PT032H.grib2 2026-05-01 08:49 863K
20260501T06Z_MSC_RDPS_WindSpeed_IsbL-0985_RLatLon0.09_PT032H.grib2 2026-05-01 08:49 858K
20260501T06Z_MSC_RDPS_WindSpeed_IsbL-1000_RLatLon0.09_PT032H.grib2 2026-05-01 08:49 853K
20260501T06Z_MSC_RDPS_WindSpeed_IsbL-1015_RLatLon0.09_PT032H.grib2 2026-05-01 08:49 844K
20260501T06Z_MSC_RDPS_WindU_AGL-10m_RLatLon0.09_PT032H.grib2 2026-05-01 08:49 433K
20260501T06Z_MSC_RDPS_WindU_AGL-120m_RLatLon0.09_PT032H.grib2 2026-05-01 08:49 540K
20260501T06Z_MSC_RDPS_WindU_AGL-40m_RLatLon0.09_PT032H.grib2 2026-05-01 08:49 540K
20260501T06Z_MSC_RDPS_WindU_AGL-80m_RLatLon0.09_PT032H.grib2 2026-05-01 08:49 540K
20260501T06Z_MSC_RDPS_WindU_IsbL-0001_RLatLon0.09_PT032H.grib2 2026-05-01 08:49 292K
20260501T06Z_MSC_RDPS_WindU_IsbL-0005_RLatLon0.09_PT032H.grib2 2026-05-01 08:49 283K
20260501T06Z_MSC_RDPS_WindU_IsbL-0010_RLatLon0.09_PT032H.grib2 2026-05-01 08:49 295K
20260501T06Z_MSC_RDPS_WindU_IsbL-0020_RLatLon0.09_PT032H.grib2 2026-05-01 08:49 349K
20260501T06Z_MSC_RDPS_WindU_IsbL-0030_RLatLon0.09_PT032H.grib2 2026-05-01 08:49 349K
20260501T06Z_MSC_RDPS_WindU_IsbL-0050_RLatLon0.09_PT032H.grib2 2026-05-01 08:49 341K
20260501T06Z_MSC_RDPS_WindU_IsbL-0100_RLatLon0.09_PT032H.grib2 2026-05-01 08:49 428K
20260501T06Z_MSC_RDPS_WindU_IsbL-0150_RLatLon0.09_PT032H.grib2 2026-05-01 08:49 393K
20260501T06Z_MSC_RDPS_WindU_IsbL-0175_RLatLon0.09_PT032H.grib2 2026-05-01 08:49 414K
20260501T06Z_MSC_RDPS_WindU_IsbL-0200_RLatLon0.09_PT032H.grib2 2026-05-01 08:49 332K
20260501T06Z_MSC_RDPS_WindU_IsbL-0225_RLatLon0.09_PT032H.grib2 2026-05-01 08:49 336K
20260501T06Z_MSC_RDPS_WindU_IsbL-0250_RLatLon0.09_PT032H.grib2 2026-05-01 08:49 337K
20260501T06Z_MSC_RDPS_WindU_IsbL-0275_RLatLon0.09_PT032H.grib2 2026-05-01 08:49 352K
20260501T06Z_MSC_RDPS_WindU_IsbL-0300_RLatLon0.09_PT032H.grib2 2026-05-01 08:49 348K
20260501T06Z_MSC_RDPS_WindU_IsbL-0350_RLatLon0.09_PT032H.grib2 2026-05-01 08:49 359K
20260501T06Z_MSC_RDPS_WindU_IsbL-0400_RLatLon0.09_PT032H.grib2 2026-05-01 08:49 363K
20260501T06Z_MSC_RDPS_WindU_IsbL-0450_RLatLon0.09_PT032H.grib2 2026-05-01 08:49 467K
20260501T06Z_MSC_RDPS_WindU_IsbL-0500_RLatLon0.09_PT032H.grib2 2026-05-01 08:49 468K
20260501T06Z_MSC_RDPS_WindU_IsbL-0550_RLatLon0.09_PT032H.grib2 2026-05-01 08:49 471K
20260501T06Z_MSC_RDPS_WindU_IsbL-0600_RLatLon0.09_PT032H.grib2 2026-05-01 08:49 479K
20260501T06Z_MSC_RDPS_WindU_IsbL-0650_RLatLon0.09_PT032H.grib2 2026-05-01 08:49 478K
20260501T06Z_MSC_RDPS_WindU_IsbL-0700_RLatLon0.09_PT032H.grib2 2026-05-01 08:49 500K
20260501T06Z_MSC_RDPS_WindU_IsbL-0750_RLatLon0.09_PT032H.grib2 2026-05-01 08:49 528K
20260501T06Z_MSC_RDPS_WindU_IsbL-0800_RLatLon0.09_PT032H.grib2 2026-05-01 08:49 571K
20260501T06Z_MSC_RDPS_WindU_IsbL-0850_RLatLon0.09_PT032H.grib2 2026-05-01 08:49 625K
20260501T06Z_MSC_RDPS_WindU_IsbL-0875_RLatLon0.09_PT032H.grib2 2026-05-01 08:49 644K
20260501T06Z_MSC_RDPS_WindU_IsbL-0900_RLatLon0.09_PT032H.grib2 2026-05-01 08:49 653K
20260501T06Z_MSC_RDPS_WindU_IsbL-0925_RLatLon0.09_PT032H.grib2 2026-05-01 08:49 661K
20260501T06Z_MSC_RDPS_WindU_IsbL-0950_RLatLon0.09_PT032H.grib2 2026-05-01 08:49 658K
20260501T06Z_MSC_RDPS_WindU_IsbL-0970_RLatLon0.09_PT032H.grib2 2026-05-01 08:49 798K
20260501T06Z_MSC_RDPS_WindU_IsbL-0985_RLatLon0.09_PT032H.grib2 2026-05-01 08:49 794K
20260501T06Z_MSC_RDPS_WindU_IsbL-1000_RLatLon0.09_PT032H.grib2 2026-05-01 08:49 790K
20260501T06Z_MSC_RDPS_WindU_IsbL-1015_RLatLon0.09_PT032H.grib2 2026-05-01 08:49 829K
20260501T06Z_MSC_RDPS_WindV_AGL-10m_RLatLon0.09_PT032H.grib2 2026-05-01 08:49 434K
20260501T06Z_MSC_RDPS_WindV_AGL-120m_RLatLon0.09_PT032H.grib2 2026-05-01 08:49 538K
20260501T06Z_MSC_RDPS_WindV_AGL-40m_RLatLon0.09_PT032H.grib2 2026-05-01 08:49 538K
20260501T06Z_MSC_RDPS_WindV_AGL-80m_RLatLon0.09_PT032H.grib2 2026-05-01 08:49 537K
20260501T06Z_MSC_RDPS_WindV_IsbL-0001_RLatLon0.09_PT032H.grib2 2026-05-01 08:49 293K
20260501T06Z_MSC_RDPS_WindV_IsbL-0005_RLatLon0.09_PT032H.grib2 2026-05-01 08:49 286K
20260501T06Z_MSC_RDPS_WindV_IsbL-0010_RLatLon0.09_PT032H.grib2 2026-05-01 08:49 297K
20260501T06Z_MSC_RDPS_WindV_IsbL-0020_RLatLon0.09_PT032H.grib2 2026-05-01 08:49 312K
20260501T06Z_MSC_RDPS_WindV_IsbL-0030_RLatLon0.09_PT032H.grib2 2026-05-01 08:49 311K
20260501T06Z_MSC_RDPS_WindV_IsbL-0050_RLatLon0.09_PT032H.grib2 2026-05-01 08:49 340K
20260501T06Z_MSC_RDPS_WindV_IsbL-0100_RLatLon0.09_PT032H.grib2 2026-05-01 08:49 427K
20260501T06Z_MSC_RDPS_WindV_IsbL-0150_RLatLon0.09_PT032H.grib2 2026-05-01 08:49 393K
20260501T06Z_MSC_RDPS_WindV_IsbL-0175_RLatLon0.09_PT032H.grib2 2026-05-01 08:49 414K
20260501T06Z_MSC_RDPS_WindV_IsbL-0200_RLatLon0.09_PT032H.grib2 2026-05-01 08:49 332K
20260501T06Z_MSC_RDPS_WindV_IsbL-0225_RLatLon0.09_PT032H.grib2 2026-05-01 08:49 334K
20260501T06Z_MSC_RDPS_WindV_IsbL-0250_RLatLon0.09_PT032H.grib2 2026-05-01 08:49 335K
20260501T06Z_MSC_RDPS_WindV_IsbL-0275_RLatLon0.09_PT032H.grib2 2026-05-01 08:49 351K
20260501T06Z_MSC_RDPS_WindV_IsbL-0300_RLatLon0.09_PT032H.grib2 2026-05-01 08:49 348K
20260501T06Z_MSC_RDPS_WindV_IsbL-0350_RLatLon0.09_PT032H.grib2 2026-05-01 08:49 356K
20260501T06Z_MSC_RDPS_WindV_IsbL-0400_RLatLon0.09_PT032H.grib2 2026-05-01 08:49 359K
20260501T06Z_MSC_RDPS_WindV_IsbL-0450_RLatLon0.09_PT032H.grib2 2026-05-01 08:49 464K
20260501T06Z_MSC_RDPS_WindV_IsbL-0500_RLatLon0.09_PT032H.grib2 2026-05-01 08:49 465K
20260501T06Z_MSC_RDPS_WindV_IsbL-0550_RLatLon0.09_PT032H.grib2 2026-05-01 08:49 467K
20260501T06Z_MSC_RDPS_WindV_IsbL-0600_RLatLon0.09_PT032H.grib2 2026-05-01 08:49 458K
20260501T06Z_MSC_RDPS_WindV_IsbL-0650_RLatLon0.09_PT032H.grib2 2026-05-01 08:49 475K
20260501T06Z_MSC_RDPS_WindV_IsbL-0700_RLatLon0.09_PT032H.grib2 2026-05-01 08:49 495K
20260501T06Z_MSC_RDPS_WindV_IsbL-0750_RLatLon0.09_PT032H.grib2 2026-05-01 08:49 523K
20260501T06Z_MSC_RDPS_WindV_IsbL-0800_RLatLon0.09_PT032H.grib2 2026-05-01 08:49 694K
20260501T06Z_MSC_RDPS_WindV_IsbL-0850_RLatLon0.09_PT032H.grib2 2026-05-01 08:49 754K
20260501T06Z_MSC_RDPS_WindV_IsbL-0875_RLatLon0.09_PT032H.grib2 2026-05-01 08:49 640K
20260501T06Z_MSC_RDPS_WindV_IsbL-0900_RLatLon0.09_PT032H.grib2 2026-05-01 08:49 650K
20260501T06Z_MSC_RDPS_WindV_IsbL-0925_RLatLon0.09_PT032H.grib2 2026-05-01 08:49 657K
20260501T06Z_MSC_RDPS_WindV_IsbL-0950_RLatLon0.09_PT032H.grib2 2026-05-01 08:49 796K
20260501T06Z_MSC_RDPS_WindV_IsbL-0970_RLatLon0.09_PT032H.grib2 2026-05-01 08:49 796K
20260501T06Z_MSC_RDPS_WindV_IsbL-0985_RLatLon0.09_PT032H.grib2 2026-05-01 08:49 792K
20260501T06Z_MSC_RDPS_WindV_IsbL-1000_RLatLon0.09_PT032H.grib2 2026-05-01 08:49 834K
20260501T06Z_MSC_RDPS_WindV_IsbL-1015_RLatLon0.09_PT032H.grib2 2026-05-01 08:49 828K